Sisseton, SD

9:50 AM CDT on August 17, 2017 (GMT -0500)
Sisseton

Weather History for K8D3 - September, 2012

Change the Weather History Date:

Friday, September 14, 2012

  Actual Average Record
Temperature  
Mean Temperature 56 °F 61 °F  
Max Temperature 76 °F 73 °F 97 °F (1969)
Min Temperature 35 °F 48 °F 32 °F (1956)
Degree Days  
Heating Degree Days 9 6  
Month to date heating degree days 41 60  
Since 1 July heating degree days 77 103  
Cooling Degree Days 0 1  
Month to date cooling degree days 43 33  
Year to date cooling degree days 705 512  
Growing Degree Days 6 (Base 50)    
Moisture  
Dew Point 34 °F    
Average Humidity 51    
Maximum Humidity 82    
Minimum Humidity 19    
Precipitation  
Precipitation 0.00 in 0.09 in 3.19 in (1900)
Month to date precipitation 0.03 1.09  
Year to date precipitation 14.30 17.83  
Sea Level Pressure  
Sea Level Pressure 30.25 in    
Wind  
Wind Speed 5 mph (SE)    
Max Wind Speed 16 mph    
Max Gust Speed 21 mph    
T = Trace of Precipitation, MM = Missing Value Source: NWS Daily Summary

Daily Weather History Graph

Daily Weather History Graph

Search for Another Location

Airport or City:

Trip Planner

Search our weather history database for the weather conditions in past years. The results will help you decide how hot, cold, wet, or windy it might be!

Date:

Astronomy

Sep. 14, 2012 Rise Set
Actual Time 7:05 AM CDT 7:40 PM CDT
Civil Twilight 6:35 AM CDT 8:09 PM CDT
Nautical Twilight 6:00 AM CDT 8:45 PM CDT
Astronomical Twilight 5:23 AM CDT 9:21 PM CDT
Moon 5:29 AM CDT (9/14) 6:37 PM CDT (9/14)
Length of Visible Light 13h 34m
Length of Day
12h 34m
Waning Crescent, 2% of the Moon is Illuminated
Sep 14
Waning Crescent
Sep 15
New
Sep 22
First Quarter
Sep 29
Full
Oct 8
Last Quarter

Hourly Weather History & Observations

Time (CDT) Temp. Windchill Dew Point Humidity Pressure Visibility Wind Dir Wind Speed Gust Speed Precip Events Conditions
12:56 AM 55.0 °F - 34.0 °F 45% 30.25 in - ENE 4.6 mph - N/A   Unknown
1:56 AM 51.1 °F - 35.1 °F 54% 30.26 in - Calm Calm - N/A   Unknown
2:56 AM 42.1 °F - 34.0 °F 73% 30.27 in - Calm Calm - N/A   Unknown
3:56 AM 41.0 °F 39.0 °F 34.0 °F 76% 30.28 in - NNW 3.5 mph - N/A   Unknown
4:56 AM 37.0 °F 34.5 °F 30.9 °F 79% 30.29 in - North 3.5 mph - N/A   Unknown
5:56 AM 37.9 °F - 32.0 °F 79% 30.30 in - Calm Calm - N/A   Unknown
6:56 AM 36.0 °F - 30.9 °F 82% 30.30 in - Calm Calm - N/A   Unknown
7:56 AM 41.0 °F - 36.0 °F 82% 30.31 in - Calm Calm - N/A   Unknown
8:56 AM 51.1 °F - 37.0 °F 59% 30.32 in - ESE 3.5 mph - N/A   Unknown
9:56 AM 57.9 °F - 36.0 °F 44% 30.31 in - South 8.1 mph - N/A   Unknown
10:56 AM 63.0 °F - 35.1 °F 35% 30.31 in - SSE 9.2 mph - N/A   Unknown
11:56 AM 68.0 °F - 33.1 °F 27% 30.30 in - SSE 9.2 mph - N/A   Unknown
12:56 PM 72.0 °F - 30.9 °F 22% 30.27 in - SE 9.2 mph - N/A   Unknown
1:56 PM 73.0 °F - 28.9 °F 20% 30.26 in - SE 13.8 mph 19.6 mph N/A   Unknown
2:56 PM 75.0 °F - 30.0 °F 19% 30.25 in - South 12.7 mph 18.4 mph N/A   Unknown
3:56 PM 75.0 °F - 30.9 °F 20% 30.23 in - ESE 9.2 mph - N/A   Unknown
4:56 PM 75.0 °F - 30.9 °F 20% 30.22 in - SSE 10.4 mph - N/A   Unknown
5:56 PM 75.0 °F - 32.0 °F 21% 30.20 in - SE 8.1 mph - N/A   Unknown
6:56 PM 72.0 °F - 34.0 °F 25% 30.19 in - ESE 6.9 mph - N/A   Unknown
7:56 PM 64.0 °F - 35.1 °F 34% 30.19 in - ESE 4.6 mph - N/A   Unknown
8:56 PM 60.1 °F - 35.1 °F 39% 30.19 in - SSE 3.5 mph - N/A   Unknown
9:56 PM 55.0 °F - 36.0 °F 49% 30.19 in - SW 3.5 mph - N/A   Unknown
10:56 PM 55.0 °F - 37.0 °F 51% 30.19 in - SSW 3.5 mph - N/A   Unknown
11:56 PM 53.1 °F - 36.0 °F 52% 30.17 in - Calm Calm - N/A   Unknown